COSMOS 1275 DEB

Satellite information

Favourite Embed

Satellite Type and Status

DEBRISIN ORBIT

Key statistics

Satellite COSMOS 1275 DEB at a glance.

Uptime

16219

Days in orbit

Revolutions

≈ 13.9

Per day

Orbit

LEO

Low Earth Orbit

Inclination

83.0

Latest

Satellite identification and parameters

Extended collection of information and parameters for COSMOS 1275 DEB.

Object identification

Identified? True

Debris? True

Object name: COSMOS 1275 DEB

International designator: 1981-053HL

Object number (NORAD): 13816

Object ID (CCSDS): 13816

Country: COMMONWEALTH OF INDEPENDENT STATES (CIS)

Current information (Y/N): Y

RCS size: SMALL

Orbital parameters

Period: 103.778 minutes

Inclination: 82.9829 deg

SMA: 7315.281 km

Apoapsis: 1053.968 km

Periapsis: 820.325 km

RAAN: 245.3887 deg

Eccentricy: 0.01596958

Argument of periapsis: 120.756 deg

Mean anomaly: 304.7781 deg

Mean motion: 13.87574149 rev/day

Mean motion (dot): 0.0000195 rev/day2

B* drag term: 0.001478736 1/REarth

Two-line elements (TLE)

Creation date: Oct. 30, 2025, 3:32 a.m.

Reference frame: TEME

Reference center: EARTH

Epoch: Oct. 29, 2025, 9:33 p.m. UTC

TLE line 0: 0 COSMOS 1275 DEB

TLE line 1: 1 13816U 81053HL 25302.89849493 .00001950 00000-0 14787-2 0 9996

TLE line 2: 2 13816 82.9829 245.3887 0159696 120.7560 304.7781 13.87574149128339

Live tracking on map

Real-time ground track for satellite COSMOS 1275 DEB.

In-orbit conjunctions

A list of the most updated potential collisions computed for object COSMOS 1275 DEB.

Target Orbit TCA Probability of collision Miss distance Type
COSMOS 1275 DEB LEO 2024-11-14 13:11:14 0.0002228002 696.0 (m) DEBRIS
FENGYUN 1C DEB SSO 2024-11-11 09:42:44 0.000529772 395.0 (m) DEBRIS
SL-8 R/B LEO 2024-09-27 03:59:14 0.0006204584 175.0 (m) ROCKET BODY

Associated space launch

Navigation satellite providing location information for the Tsiklon-B navigation system

COSMOS 1275 DEB was lifted into orbit during the mission ‘Kosmos-3M | Parus 27’, on board a Kosmos-3M space rocket.

The launch took place on June 4, 1981, 3:41 p.m. from 132/2.

For more information about the launch, click the button.

Launch to space Kosmos-3M | Parus 27
Kosmos-3M | Parus 27

Agency: N/A

Status: Launch Successful

Launch date: June 4, 1981, 3:41 p.m. UTC

Rocket: Kosmos-3M

Launch pad: 132/2

Location: Plesetsk Cosmodrome, Russian Federation

...

Latest news about this satellite

There are no fresh news available about this satellite. Check back as we update our databases every day.


Newsletter sign-up

Weekly statistics, charts and insights to help you stay on top of the space industry.